カタログに戻る

STARLINK-37651

運用中通信VLEO
NORAD 69353·PAYLOAD·🇺🇸 United States

打ち上げ Jun 4, 2026 から Cape Canaveral Space Force Station

Loading…

次のパス (今後24時間)

TLE

最新Source: CelesTrak SupGP

元期: Sep 14, 2026, 23:03 UTC

1 69353C 26123A   26257.96090278 -.00048443  00000+0 -14312-2 0  2577
2 69353  53.1583 167.4272 0001131  79.6401 235.5196 15.34416991    10

AllMySatでSTARLINK-37651をリアルタイム追跡

Download on the App Store